EW1555 Weather Reports


time (UTC)temp
F
wind
direction
speed
knots
gust
knots
rain 1hr
in
rain 24hr
in
rain mn
in
humidity
%
barometer
mb
20260505041605 52 198 0.0 2.6 0.00 0.00 0.00 75 1011.0
20260505041503 53 203 0.0 2.6 0.00 0.00 0.00 75 1011.9
20260505041003 53 205 0.0 0.9 0.00 0.00 0.00 75 1011.9
20260505040503 53 204 0.0 1.7 0.00 0.00 0.00 75 1011.9
20260505040012 53 205 0.0 1.7 0.00 0.00 0.00 74 1011.0
20260505040004 53 204 0.0 1.7 0.00 0.00 0.00 74 1011.9
20260505035503 53 205 0.0 1.7 0.00 0.00 0.00 74 1011.8
20260505035003 54 206 0.0 1.7 0.00 0.00 0.00 74 1011.8
20260505034504 53 208 0.0 1.7 0.00 0.00 0.00 73 1010.8
20260505034003 54 199 0.0 1.7 0.00 0.00 0.00 73 1011.7
20260505033503 54 198 0.0 1.7 0.00 0.00 0.00 73 1011.7
20260505033024 54 198 0.0 4.3 0.00 0.00 0.00 72 1011.7
20260505033008 53 199 0.0 1.7 0.00 0.00 0.00 72 1010.8
20260505032503 54 202 0.0 4.3 0.00 0.00 0.00 72 1011.7
20260505032003 54 208 0.0 2.6 0.00 0.00 0.00 72 1011.7
20260505031513 54 216 0.0 2.6 0.00 0.00 0.00 71 1010.8
20260505031503 54 203 0.0 2.6 0.00 0.00 0.00 71 1011.7
20260505031003 54 198 0.0 2.6 0.00 0.00 0.00 71 1011.7
20260505030503 55 199 0.0 2.6 0.00 0.00 0.00 70 1011.8
20260505030018 54 200 0.0 1.7 0.00 0.00 0.00 70 1010.8
20260505030003 55 200 0.0 1.7 0.00 0.00 0.00 70 1011.8
20260505025503 55 204 0.0 3.5 0.00 0.00 0.00 70 1011.8
20260505025003 55 205 0.0 3.5 0.00 0.00 0.00 69 1011.9
20260505024509 55 219 0.0 1.7 0.00 0.00 0.00 68 1011.0
20260505024503 55 223 0.0 1.7 0.00 0.00 0.00 68 1011.9
20260505024003 55 221 0.0 2.6 0.00 0.00 0.00 68 1011.9
20260505023503 55 213 0.0 2.6 0.00 0.00 0.00 68 1011.8
20260505023022 55 204 0.0 3.5 0.00 0.00 0.00 67 1011.0
20260505023003 55 208 0.0 3.5 0.00 0.00 0.00 67 1011.9
20260505022503 56 213 0.0 3.5 0.00 0.00 0.00 67 1011.9
20260505022003 56 216 0.0 1.7 0.00 0.00 0.00 66 1011.9
20260505021526 55 211 0.0 2.6 0.00 0.00 0.00 66 1011.0
20260505021503 56 216 0.0 2.6 0.00 0.00 0.00 66 1011.9
20260505021024 56 214 0.0 2.6 0.00 0.00 0.00 65 1011.8
20260505020503 56 212 0.0 0.9 0.00 0.00 0.00 65 1011.8
20260505020018 56 212 0.0 2.6 0.00 0.00 0.00 64 1010.9
20260505020003 56 213 0.0 2.6 0.00 0.00 0.00 64 1011.9
20260505015503 56 212 0.0 2.6 0.00 0.00 0.00 63 1011.8
20260505015003 57 203 0.0 1.7 0.00 0.00 0.00 63 1011.8
20260505014516 56 208 0.0 2.6 0.00 0.00 0.00 63 1010.9
20260505014503 57 203 0.0 2.6 0.00 0.00 0.00 62 1011.8
20260505014024 57 210 0.0 2.6 0.00 0.00 0.00 62 1011.8
20260505013503 57 222 0.0 2.6 0.00 0.00 0.00 61 1011.7
20260505013017 57 230 0.0 2.6 0.00 0.00 0.00 60 1010.8
20260505013003 57 223 0.0 2.6 0.00 0.00 0.00 60 1011.7
20260505012503 57 208 0.0 2.6 0.00 0.00 0.00 60 1011.7
20260505012003 58 217 0.0 2.6 0.00 0.00 0.00 59 1011.5
20260505011512 57 201 0.0 2.6 0.00 0.00 0.00 58 1010.5
20260505011503 58 236 0.0 2.6 0.00 0.00 0.00 58 1011.4
20260505011003 58 229 0.9 3.5 0.00 0.00 0.00 58 1011.3
20260505010503 58 227 0.9 3.5 0.00 0.00 0.00 57 1011.2
20260505010004 58 259 0.0 3.5 0.00 0.00 0.00 57 1010.2
20260505005503 58 217 0.9 4.3 0.00 0.00 0.00 57 1011.1
20260505005004 58 216 0.9 4.3 0.00 0.00 0.00 56 1011.0
20260505004509 58 200 0.0 4.3 0.00 0.00 0.00 56 1010.0
20260505004503 58 234 0.9 3.5 0.00 0.00 0.00 56 1010.9
20260505004003 58 243 0.9 3.5 0.00 0.00 0.00 56 1010.8
20260505003503 59 245 0.9 7.0 0.00 0.00 0.00 56 1010.7
20260505003010 58 277 0.9 7.0 0.00 0.00 0.00 56 1009.6
20260505003003 59 247 0.9 7.0 0.00 0.00 0.00 56 1010.5
20260505002503 59 204 0.0 2.6 0.00 0.00 0.00 55 1010.4
20260505002003 59 204 0.0 2.6 0.00 0.00 0.00 55 1010.3
20260505001605 59 204 0.0 3.5 0.00 0.00 0.00 54 1009.2
20260505001503 60 203 0.0 3.5 0.00 0.00 0.00 55 1010.2
20260505001003 60 205 0.0 3.5 0.00 0.00 0.00 54 1010.1
20260505000524 60 205 0.0 2.6 0.00 0.00 0.00 53 1010.1
20260505000022 60 200 0.0 2.6 0.00 0.00 0.00 53 1009.1
20260505000003 60 197 0.0 2.6 0.00 0.00 0.00 53 1010.0
20260504235503 61 197 0.0 2.6 0.00 0.00 0.00 52 1009.8
20260504235003 61 200 0.0 1.7 0.00 0.00 0.00 52 1009.8
20260504234603 61 201 0.0 3.5 0.00 0.00 0.00 51 1008.8
20260504234503 62 202 0.9 3.5 0.00 0.00 0.00 51 1009.7
20260504234003 62 204 0.9 3.5 0.00 0.00 0.00 50 1009.6
20260504233503 63 212 0.0 3.5 0.00 0.00 0.00 48 1009.5
20260504233016 63 200 0.0 3.5 0.00 0.00 0.00 47 1008.5
20260504233003 63 218 0.9 3.5 0.00 0.00 0.00 47 1009.4
20260504232503 63 218 0.9 2.6 0.00 0.00 0.00 46 1009.4
20260504232003 64 219 0.9 3.5 0.00 0.00 0.00 46 1009.3
20260504231524 64 216 0.9 5.2 0.00 0.00 0.00 46 1009.2
20260504231512 63 236 0.0 5.2 0.00 0.00 0.00 46 1008.3
20260504231003 64 215 0.9 5.2 0.00 0.00 0.00 45 1009.2
20260504230503 64 222 0.9 8.7 0.00 0.00 0.00 45 1009.0
20260504230007 64 193 0.9 8.7 0.00 0.00 0.00 45 1008.0
20260504230003 64 227 1.7 8.7 0.00 0.00 0.00 45 1009.0
20260504225503 65 227 0.9 4.3 0.00 0.00 0.00 45 1009.0
20260504225003 65 216 0.9 4.3 0.00 0.00 0.00 45 1008.8
20260504224503 65 231 1.7 10.4 0.00 0.00 0.00 45 1008.8
20260504224003 66 237 2.6 10.4 0.00 0.00 0.00 44 1008.7
20260504223503 66 224 1.7 8.7 0.00 0.00 0.00 44 1008.6
20260504223021 66 171 1.7 7.0 0.00 0.00 0.00 44 1007.7
20260504223003 66 213 0.9 7.8 0.00 0.00 0.00 44 1008.6
20260504222503 66 215 0.9 7.0 0.00 0.00 0.00 43 1008.5
20260504222003 66 228 1.7 7.8 0.00 0.00 0.00 42 1008.5
20260504221517 66 236 1.7 7.8 0.00 0.00 0.00 42 1007.6
20260504221503 67 242 1.7 7.8 0.00 0.00 0.00 42 1008.5
20260504221003 67 220 1.7 8.7 0.00 0.00 0.00 41 1008.4
20260504220503 67 217 1.7 8.7 0.00 0.00 0.00 41 1008.6
20260504220008 67 232 1.7 6.1 0.00 0.00 0.00 41 1007.7
20260504220003 67 233 1.7 6.1 0.00 0.00 0.00 41 1008.4
20260504215503 67 225 1.7 6.1 0.00 0.00 0.00 41 1008.5
20260504215003 67 216 1.7 6.1 0.00 0.00 0.00 40 1008.5
20260504214522 67 231 0.9 6.1 0.00 0.00 0.00 39 1007.5
20260504214503 68 214 1.7 6.1 0.00 0.00 0.00 39 1008.4
20260504214024 68 217 1.7 14.8 0.00 0.00 0.00 40 1008.4
20260504213503 68 221 1.7 14.8 0.00 0.00 0.00 39 1008.3
20260504213011 68 221 0.9 7.0 0.00 0.00 0.00 38 1007.5
20260504213003 68 212 0.9 7.0 0.00 0.00 0.00 38 1008.4
20260504212503 69 207 1.7 11.3 0.00 0.00 0.00 38 1008.2
20260504212003 69 201 2.6 11.3 0.00 0.00 0.00 37 1008.2
20260504211524 69 213 1.7 8.7 0.00 0.00 0.00 36 1008.2
20260504211512 69 178 1.7 8.7 0.00 0.00 0.00 36 1007.3
20260504211003 70 226 1.7 11.3 0.00 0.00 0.00 35 1008.2
20260504210503 70 229 1.7 11.3 0.00 0.00 0.00 35 1008.2
20260504210014 70 244 0.0 7.8 0.00 0.00 0.00 34 1007.2
20260504210003 70 232 1.7 7.8 0.00 0.00 0.00 34 1008.1
20260504205503 70 212 1.7 6.1 0.00 0.00 0.00 34 1008.1
20260504205003 70 213 1.7 7.0 0.00 0.00 0.00 34 1008.0
20260504204515 69 196 1.7 7.0 0.00 0.00 0.00 33 1007.1
20260504204503 70 215 1.7 8.7 0.00 0.00 0.00 33 1008.1
20260504204003 70 218 1.7 8.7 0.00 0.00 0.00 34 1008.1
20260504203503 70 228 2.6 8.7 0.00 0.00 0.00 32 1008.1
20260504203009 69 241 2.6 10.4 0.00 0.00 0.00 33 1007.2
20260504203003 70 226 2.6 11.3 0.00 0.00 0.00 33 1008.0
20260504202524 70 227 2.6 11.3 0.00 0.00 0.00 34 1008.1
20260504202003 69 226 2.6 10.4 0.00 0.00 0.00 34 1008.2
20260504201524 69 214 2.6 10.4 0.00 0.00 0.00 33 1008.1
20260504201515 69 195 3.5 10.4 0.00 0.00 0.00 33 1007.3
20260504201003 69 207 1.7 6.1 0.00 0.00 0.00 33 1008.1
20260504200503 69 222 1.7 7.8 0.00 0.00 0.00 32 1008.2
20260504200114 69 217 1.7 7.8 0.00 0.00 0.00 31 1007.3
20260504200003 70 228 2.6 7.8 0.00 0.00 0.00 32 1008.3
20260504195503 70 235 2.6 7.0 0.00 0.00 0.00 32 1008.3
20260504195024 70 241 2.6 7.0 0.00 0.00 0.00 31 1008.2
20260504194516 70 238 1.7 8.7 0.00 0.00 0.00 32 1007.4
20260504194503 70 215 2.6 8.7 0.00 0.00 0.00 32 1008.2
20260504194003 70 213 2.6 8.7 0.00 0.00 0.00 32 1008.3
20260504193524 70 231 2.6 6.1 0.00 0.00 0.00 31 1008.3
20260504193024 70 237 1.7 7.8 0.00 0.00 0.00 31 1008.2
20260504193005 69 305 0.9 7.8 0.00 0.00 0.00 31 1007.3
20260504192503 70 243 1.7 7.8 0.00 0.00 0.00 30 1008.3
20260504192003 70 237 1.7 7.0 0.00 0.00 0.00 32 1008.2
20260504191518 69 249 0.9 11.3 0.00 0.00 0.00 31 1007.3
20260504191503 70 215 2.6 11.3 0.00 0.00 0.00 31 1008.2
20260504191003 70 222 2.6 11.3 0.00 0.00 0.00 30 1008.1
20260504190503 70 239 1.7 6.1 0.00 0.00 0.00 32 1008.3
20260504190006 69 272 0.9 8.7 0.00 0.00 0.00 33 1007.5
20260504190003 70 218 2.6 9.6 0.00 0.00 0.00 33 1008.3
20260504185503 70 228 2.6 9.6 0.00 0.00 0.00 31 1008.4
20260504185003 70 242 2.6 7.8 0.00 0.00 0.00 32 1008.4
20260504184506 69 205 2.6 8.7 0.00 0.00 0.00 31 1007.8
20260504184503 70 231 3.5 11.3 0.00 0.00 0.00 31 1008.6
20260504184024 70 236 3.5 11.3 0.00 0.00 0.00 31 1008.7
20260504183503 70 248 2.6 8.7 0.00 0.00 0.00 31 1008.6
20260504183016 70 245 2.6 7.8 0.00 0.00 0.00 31 1007.8
20260504183003 71 248 1.7 7.8 0.00 0.00 0.00 31 1008.7
20260504182524 71 253 0.9 4.3 0.00 0.00 0.00 30 1008.7
20260504182003 70 259 1.7 6.1 0.00 0.00 0.00 31 1008.7
20260504181515 70 267 1.7 7.8 0.00 0.00 0.00 30 1007.9
20260504181503 70 251 2.6 7.8 0.00 0.00 0.00 30 1008.8
20260504181003 70 245 2.6 7.8 0.00 0.00 0.00 30 1008.8
20260504180503 71 242 1.7 3.5 0.00 0.00 0.00 31 1008.8
20260504180005 70 229 0.9 5.2 0.00 0.00 0.00 30 1008.1
20260504180003 71 245 1.7 5.2 0.00 0.00 0.00 30 1008.9
20260504175503 70 241 1.7 6.1 0.00 0.00 0.00 32 1009.0
20260504175003 70 242 2.6 11.3 0.00 0.00 0.00 33 1008.8
20260504174603 69 214 0.9 11.3 0.00 0.00 0.00 31 1008.1
20260504174503 69 246 3.5 11.3 0.00 0.00 0.00 32 1008.9
20260504174024 70 238 3.5 10.4 0.00 0.00 0.00 30 1009.0
20260504173503 69 227 2.6 7.8 0.00 0.00 0.00 31 1009.1
20260504173013 69 254 1.7 7.0 0.00 0.00 0.00 30 1008.0
20260504173003 70 229 2.6 7.0 0.00 0.00 0.00 30 1008.9
20260504172503 70 246 1.7 7.0 0.00 0.00 0.00 31 1008.8
20260504172003 70 245 1.7 8.7 0.00 0.00 0.00 33 1008.9
20260504171518 68 217 0.9 7.0 0.00 0.00 0.00 30 1008.1
20260504171503 69 253 1.7 8.7 0.00 0.00 0.00 30 1009.0
20260504171003 69 250 2.6 9.6 0.00 0.00 0.00 31 1009.0
20260504170524 69 241 2.6 11.3 0.00 0.00 0.00 34 1009.0
20260504151003 66 243 0.9 6.1 0.00 0.00 0.00 36 1010.5
20260504150524 66 238 1.7 10.4 0.00 0.00 0.00 37 1010.5
20260504141024 64 244 1.7 6.1 0.00 0.00 0.00 42 1010.9
20260504140503 64 245 0.9 4.3 0.00 0.00 0.00 41 1011.0
20260504130503 56 233 1.7 7.0 0.00 0.00 0.00 50 1011.7
20260504110503 46 262 0.0 1.7 0.00 0.00 0.00 63 1011.9
20260504100503 43 242 0.0 0.9 0.00 0.00 0.00 67 1011.8
20260504081524 44 0 0.0 0.0 0.00 0.00 0.00 64 1011.6
20260504081508 44 240 0.0 0.0 0.00 0.00 0.00 64 1010.8
20260504081003 44 0 0.0 0.0 0.00 0.00 0.00 65 1011.6
20260504080503 44 0 0.0 0.0 0.00 0.00 0.00 65 1011.7
20260504050503 40 0 0.0 0.0 0.00 0.00 0.00 70 1011.5
20260504050024 40 236 0.0 0.9 0.00 0.00 0.00 70 1011.4
20260504050009 39 237 0.0 0.0 0.00 0.00 0.00 70 1010.7